Simultaneous Nadir Overpasses (SNOs) Predictions

Prediction of SNOs between GOES-15 and METOP-A Satellite Orbit:

Table of predicted SNOs for the next 14.0 days since TLE Epoch: 10/24/2014
Index Date Time (GOES-15) GOES-15 Lat,Lon METOP-A Lat,Lon Distance(km) Time Diff (sec)
1 10/25/2014 06:33:50 0.32,-135.18 0.25,-135.52 38.52 80
2 10/27/2014 18:32:00 -0.31,-135.18 -0.35,-135.08 12.02 80
3 10/30/2014 06:27:37 0.30,-135.06 0.37,-134.65 45.35 80
4 10/31/2014 18:46:28 -0.29,-135.06 0.62,-139.21 472.85 80
5 11/01/2014 18:28:27 -0.29,-135.03 -0.49,-134.21 93.48 80
6 11/03/2014 06:47:25 0.29,-134.93 -0.59,-138.79 439.98 80
7 11/04/2014 06:24:05 0.29,-134.89 0.52,-133.79 125.74 80
8 11/05/2014 18:42:54 -0.28,-134.89 0.51,-138.33 393.45 80
9 11/06/2014 18:24:54 -0.29,-134.85 -0.60,-133.33 172.37 80




NCC Satellite Simultaneous Nadir Overpasses (SNOs) Prediction Service
